{"data":{"norad_id":49318,"epoch":"2026-05-25T04:29:02.831712Z","epoch_age_seconds":69612,"freshness":"FRESH","line1":"1 49318U 21091D   26145.18683833  .00000081  00000+0  76473-4 0  9995","line2":"2 49318  97.4529 182.1884 0013838  44.8963 315.3323 14.00148483244869","mean_motion":14.00148483,"eccentricity":0.0013838,"inclination_deg":97.4529,"raan_deg":182.1884,"arg_perigee_deg":44.8963,"mean_anomaly_deg":315.3323,"bstar":7.6473e-5,"rev_number":24486,"period_min":102.84623505891,"perigee_km":883.21882725613,"apogee_km":903.34320375584,"semimajor_km":7271.418015506,"source":"CELESTRAK","updated_at":"2026-05-25T13:37:57.170553Z"}}